Terug naar catalogus

STARLINK-35909

ActiefCommunicatieVLEO
NORAD 66496·PAYLOAD·🇺🇸 United States

Gelanceerd Nov 15, 2025 vanaf Cape Canaveral Space Force Station

Loading…

Volgende Passages (komende 24 uur)

TLE

VersSource: CelesTrak SupGP

Epoch: Sep 15, 2026, 04:06 UTC

1 66496C 25263M   26258.17131944  .00047892  00000+0  17345-2 0  2581
2 66496  43.0026   0.8137 0001700 262.3318 154.8776 15.27556794    10

Volg STARLINK-35909 in realtime met AllMySat

Download on the App Store